Location: Antagadou
(14.7433°N, 3.0581°W)
Time: 14:51:32
(UTC+00:00)

Daily predictions for brighter satellites

Satellite Brightness Start Highest point End
(mag) Time Altitude Azimuth Time Altitude Azimuth Time Altitude Azimuth
Cosmos 2369 3.8 17:59:30 10° N 18:05:06 58° ENE 18:10:41 10° SSE
USA 229 DEB 4.1 18:03:11 10° NNW 18:10:59 83° ENE 18:18:56 10° SSE
USA 229 4.1 18:03:17 10° NNW 18:11:04 82° ENE 18:19:01 10° SSE
Molniya-1 4.4 18:08:16 10° S 18:11:11 28° ESE 18:14:54 10° NE
CZ-4B DEB 4.2 18:06:01 10° SSE 18:11:31 72° ENE 18:17:00 10° N
NOSS 3-3 (A) 3.9 18:07:11 10° SSW 18:12:31 74° WNW 18:18:10 10° NNE
NOSS 3-3 (C) 3.9 18:07:16 10° SSW 18:12:38 75° WNW 18:18:17 10° NNE
Aurora 2 Rocket 3.2 18:08:26 10° NW 18:12:44 50° NNE 18:18:50 10° E
Cosmos 1937 Rocket 3.9 18:08:34 10° NNW 18:13:49 70° WSW 18:19:02 10° S
ATLAS 5 CENTAUR R/B 2.7 17:55:02 10° WSW 18:14:41 86° SSE 18:19:11 11° ENE
Meteor 1-5 Rocket 4.4 18:08:58 10° N 18:14:44 58° E 18:20:19 10° SSE
Cosmos 372 Rocket 4.0 18:10:10 10° N 18:15:22 68° ENE 18:20:34 10° SSE
Meteor 2-16 Rocket 4.4 18:09:55 10° N 18:16:00 68° E 18:22:06 10° SSE
Meteor 2-15 Rocket 4.4 18:10:24 10° S 18:16:30 73° E 18:22:35 10° N
USA 276 2.0 18:14:44 10° NNW 18:17:48 64° NE 18:20:52 10° SE
MOS 1-B 4.3 18:20:47 10° SSE 18:26:30 68° ENE 18:32:12 10° N
Cosmos 2278 3.9 18:22:32 10° N 18:27:58 47° ENE 18:33:21 10° SE
COSMO-SKYMED 1 3.9 18:24:57 10° N 18:29:02 42° WNW 18:33:07 10° SSW
Cosmos 1633 Rocket 3.1 18:27:34 10° N 18:31:58 82° W 18:36:22 10° S
CZ-2D R/B 3.7 18:29:20 10° S 18:33:09 64° W 18:36:56 10° NNW
CZ-2C R/B 4.0 18:34:15 10° N 18:38:59 37° WNW 18:43:46 10° SW
CZ-4B R/B 3.1 18:33:41 10° SSE 18:39:07 66° ENE 18:44:27 10° N
SWIFT 2.4 18:36:33 10° WNW 18:40:45 79° SSW 18:43:56 17° ESE
Meteor 1-27 Rocket 3.8 18:35:45 10° S 18:41:18 79° W 18:46:48 10° N
CZ-4C R/B 3.4 18:38:08 10° N 18:46:04 48° ENE 18:54:23 10° SE
Okean O Rocket 1.6 18:42:53 10° SSE 18:47:16 63° ENE 18:51:39 10° N
SL-27 R/B 2.3 18:45:01 10° S 18:48:24 69° ESE 18:50:15 25° NNE
GPS 2-12 Rocket1 3.0 18:44:01 10° W 18:48:31 67° NNW 18:50:36 30° ENE
SL-24 R/B - RUBIN 2 3.5 18:46:13 10° NNW 18:50:31 88° WSW 18:54:58 10° SSE
Cosmos 1833 4.3 18:44:57 10° SSW 18:50:32 79° WNW 18:56:08 10° NNE
Cosmos 2266 Rocket 4.0 18:45:10 10° N 18:51:32 69° E 18:57:52 10° SSE
IRAS Rocket 4.1 18:49:06 10° NNE 18:54:38 81° ESE 19:00:12 10° SSW
Cosmos 1933 Rocket 3.5 18:53:58 10° N 18:58:13 59° E 19:02:29 10° SSE
Aureole 3 Rocket 4.2 18:59:45 10° SSW 19:02:54 36° W 19:06:52 10° NNW
Cosmos 1470 Rocket 4.2 18:59:47 10° NNW 19:04:10 58° W 19:08:33 10° S
Cosmos 1536 2.9 19:09:03 54° ESE 19:09:03 54° ESE 19:12:38 10° SSE
deb Chang Zheng 4 4.5 19:06:43 10° S 19:10:52 49° WSW 19:15:02 10° NNW
CRRES 4.2 19:09:23 10° W 19:11:48 68° N 19:12:10 61° NE
Cosmos 2298 Rocket 3.9 19:13:48 10° N 19:19:07 83° ENE 19:24:27 10° SSE
Spot 2 4.3 19:15:44 10° SSE 19:20:44 67° ENE 19:23:56 23° N
CZ-4 R/B 1.9 19:17:28 10° SSE 19:20:34 48° SSE 19:20:34 48° SSE
Cosmos 1538 Rocket 4.0 19:16:23 10° S 19:21:42 65° ESE 19:22:24 58° ENE
ASTEX 1 4.5 19:19:03 10° SSE 19:21:39 29° SE 19:21:39 29° SE
H-2A R/B 2.8 19:25:40 26° NNW 19:27:54 51° WNW 19:32:11 10° SSW
NOAA 15 4.5 19:25:13 10° SSE 19:30:31 90° W 19:35:49 10° NNW
Cosmos 1818 3.5 19:29:01 10° NNW 19:33:47 67° N 19:33:47 67° N
Meteor 1-18 Rocket 4.2 19:31:43 10° S 19:37:34 85° W 19:39:13 50° N
Meteor 2-4 Rocket 3.9 19:33:31 10° S 19:37:59 54° SE 19:37:59 54° SE
GPS 2-15 Rocket1 3.8 19:38:41 10° WNW 19:42:12 51° W 19:42:12 51° W
H-2A R/B 3.8 19:44:15 10° SW 19:48:23 25° SSW 19:48:23 25° SSW
USA 234 4.1 19:53:43 34° N 19:53:43 34° N 19:57:22 10° NNW
SL-16 R/B 3.6 19:50:09 10° NNW 20:00:08 17° S 20:01:24 10° S
YAOGAN 1 4.2 19:52:15 10° SSW 19:56:08 33° W 19:56:38 32° W
Hubble Space Telescope 3.2 19:53:05 10° SW 19:54:20 18° SSW 19:54:20 18° SSW
Cosmos 1553 Rocket 4.5 19:50:44 10° SSW 19:56:53 57° W 19:58:57 39° NNW
S3M 4.4 19:53:17 10° S 19:57:42 51° S 19:57:42 51° S
Aurora 2 Rocket 3.9 20:00:42 10° W 20:06:11 59° SSW 20:06:11 59° SSW
CZ-3B R/B 4.3 20:04:46 10° SW 20:12:13 35° SSE 20:12:13 35° SSE
H-2A R/B 4.1 19:13:51 10° WNW 20:13:17 86° SSW 20:16:37 56° SE
